Regional Weather Roundup
Issued by NWS New Orleans/Baton Rouge, LA

Home | Current Version | Previous Version | Text Only | Print | Product List | Glossary On
Versions: 1 2 3 4 5 6 7 8 9 10 11 12 13 14 15 16 17 18 19 20 21 22 23 24 25 26 27 28 29 30 31 32 33 34 35 36 37 38 39 40 41 42 43 44 45 46 47 48 49 50
129
ASUS44 KLIX 231210
RWRLIX
NEW ORLEANS REGIONAL WEATHER ROUNDUP
NATIONAL WEATHER SERVICE NEW ORLEANS LA
700 AM CDT SAT AUG 23 2014

NOTE: "FAIR" INDICATES FEW OR NO CLOUDS BELOW 12,000 FEET WITH NO
      SIGNIFICANT WEATHER AND/OR OBSTRUCTIONS TO VISIBILITY.
      SKY/WX - SKY CONDITION AND SIGNIFICANT WEATHER.
      TMP - AIR TEMPERATURE.     DP    - DEWPOINT TEMPERATURE.
      RH  - RELATIVE HUMIDITY.   PRES  - PRESSURE.
      HI  - HEAT INDEX.          WCI   - WIND CHILL INDEX.

*  THESE STATIONS ARE NOT NWS OR FAA STATIONS AND ARE NOT UNDER
   NWS QUALITY CONTROL.

LAZ038-040-048-061>063-065>067-069-231300-
SOUTHEAST LOUISIANA

CITY           SKY/WX    TMP DP  RH WIND       PRES   REMARKS
N.O. AUDUBON     N/A     81  79  92 MISG        N/A
6HR MIN TEMP:  79; 6HR MAX TEMP:  83;

N.O. INTL ARPT PTCLDY    79  77  94 CALM      30.03R
6HR MIN TEMP:  79; 6HR MAX TEMP:  82;

N.O. LAKEFRONT CLEAR     84  77  79 NW14      30.03R
6HR MIN TEMP:  84; 6HR MAX TEMP:  85;

N.O. DOWNTOWN*   N/A     82  73  74 CALM      30.04R
6HR MIN TEMP:  82; 6HR MAX TEMP:  84;

SLIDELL        CLEAR     76  73  91 NW3       30.02S
6HR MIN TEMP:  75; 6HR MAX TEMP:  79;

BATON ROUGE    CLEAR     76  74  93 CALM      30.04R
6HR MIN TEMP:  76; 6HR MAX TEMP:  80;

BOOTHVILLE     CLEAR     82  78  88 NW5       30.03R
6HR MIN TEMP:  82; 6HR MAX TEMP:  85;

BELLE CHASSE   PTCLDY    77  73  87 CALM      30.03R
6HR MIN TEMP:  77; 6HR MAX TEMP:  82;

BOGALUSA*        N/A     76  72  87 CALM      30.05R
6HR MIN TEMP:  76; 6HR MAX TEMP:  81;

GALLIANO*      NOT AVBL
NEW ROADS*     PTSUNNY   74  73  98 CALM      30.04R
6HR MIN TEMP:  73; 6HR MAX TEMP:  77;

GONZALES*        N/A     76  76 100 CALM      30.03S
6HR MIN TEMP:  76; 6HR MAX TEMP:  80;

HAMMOND*       CLEAR     75  73  94 CALM      30.05S
HOUMA*         CLEAR     75  73  94 CALM      30.04R
PORT FOURCHON* MOSUNNY   84  77  79 VRB7      30.05R

$$

MSZ070-080>082-231300-
SOUTHERN MISSISSIPPI

CITY           SKY/WX    TMP DP  RH WIND       PRES   REMARKS
MCCOMB         CLEAR     75  72  90 CALM      30.05R
6HR MIN TEMP:  74; 6HR MAX TEMP:  78;

GULFPORT       CLEAR     78  75  90 NW3       30.01S
6HR MIN TEMP:  78; 6HR MAX TEMP:  81;

BILOXI         CLEAR     81  75  81 CALM      30.02R
6HR MIN TEMP:  80; 6HR MAX TEMP:  83;

PASCAGOULA     CLEAR     75  75 100 CALM      30.02S FOG
6HR MIN TEMP:  74; 6HR MAX TEMP:  76;

STENNIS ARPT*  CLEAR    N/A N/A N/A CALM      30.02  FOG

$$

COASTAL OBSERVATIONS
LAKE AND NEARSHORE STATIONS

STATION/POSITION TIME  TEMP    WIND        PRES    WAVE
                       AIR SEA DIR/SP/G            HT/PER
                 (UTC) (F)     (DEG/KT/KT) (MB)    (FT/S)
PASCAGOULA       1200   82     310/  7/ 10 1016.0
WAVELAND YACHT   1200   80     320/  6/  7 1016.0
GRAND ISLE       1200   85 89  340/  7/ 10 1017.4
SOUTHWEST PASS   1200   84 87  310/  7/  8 1017.0
NEW CANAL        1200   84 84   CALM  /  3 1017.4
SHELL BEACH      1200   82 82  270/  6/  8 1016.7

OFFSHORE STATIONS

STATION/POSITION TIME  TEMP    WIND        PRES    WAVE
                       AIR SEA DIR/SP/G            HT/PER
                 (UTC) (F)     (DEG/KT/KT) (MB)    (FT/S)
64 S DAUPHIN ISL 1146   86 88  320/ 10/ 12 1016.4

$$




USA.gov is the U.S. government's official web portal to all federal, state and local government web resources and services.